Probability
0 0 0 0 0 0 0 0 0 0 0 0 0 0 0 0 0 0 0 0 0 0 0 0 0 0 0 0 0 0 0 0 0 0 0 0 0 0 0 0 0 0 0 0 0 0 0 0 0
0 0 0 0 0 0 0 0 0 0 0 0 0 0 0 0 0 0 0 0 0 0 0 0 0 0 0 0 0 0 0 0 0 0 0 0 0 0 0 0 0 0 0 0 0 0 0 0 0
0 0 0 0 0 0 0 0 0 0 0 0 0 0 0 0 0 0 0 0 0 0 0 0 0 0 0 0 0 0 0 0 0 0 0 0 0 0 0 0 0 0 0 0 0 0 0 0 0
0 0 0 0 0 0 0 0 0 0 0 0 0 0 0 0 0 0 0 0 0 0 0 0 0 0 0 0 0 0 0 0 0 0 0 0 0 0 0 0 0 0 0 0 0 0 0 0 0
0 0 0 0 0 0 0 0 0 0 0 0 0 0 0 0 0 0 0 0 0 0 0 0 0 0 0 0 0 0 0 0 0 0 0 0 0 0 0 0 0 0 0 0 0 0 0 0 0
0 0 0 0 0 0 0 0 0 0 0 0 0 0 0 0 0 0 0 0 0 0 0 0 0 0 0 0 0 0 0 0 0 0 0 0 0 0 0 0 0 0 0 0 0 0 0 0 0
0 0 0 0 0 0 0 0 0 0 0 0 0 0 0 0 0 0 0 0 0 0 0 0 0 0 0 0 0 0 0 0 0 0 0 0 0 0 0 0 0 0 0 0 0 0 0 0 0
0 0 0 0 0 0 0 0 0 0 0 0 0 0 0 0 0 0 0 0 0 0 0 0 0 0 0 0 0 0 0 0 0 0 0 0 0 0 0 0 0 0 0 0 0 0 0 0 0
0 0 0 0 0 0 0 0 0 0 0 0 0 0 0 0 0 0 0 0 0 0 0 0 0 0 0 0 0 0 0 0 0 0 0 0 0 0 0 0 0 0 0 0 0 0 0 0 0
0 0 0 0 0 0 0 0 0 0 0 0 0 0 0 0 0 0 0 0 0 0 0 0 0 0 0 0 0 0 0 0 0 0 0 0 0 0 0 0 0 0 0 0 0 0 0 0 0
0 0 0 0 0 0 0 0 0 0 0 0 0 0 0 0 0 0 0 0 0 0 0 0 0 0 0 0 0 0 0 0 0 0 0 0 0 0 0 0 0 0 0 0 0 0 0 0 0
0 0 0 0 0 0 0 0 0 0 0 0 0 0 0 0 0 0 0 0 0 0 0 0 0 0 0 0 0 0 0 0 0 0 0 0 0 0 0 0 0 0 0 0 0 0 0 0 0
0 0 0 0 0 0 0 0 0 0 0 0 0 0 0 0 0 0 0 0 0 0 0 0 0 0 0 0 0 0 0 0 0 0 0 0 0 0 0 0 0 0 0 0 0 0 0 0 0
0 0 0 0 0 0 0 0 0 0 0 0 0 0 0 0 0 0 0 0 0 0 0 0 0 0 0 0 0 0 0 0 0 0 0 0 0 0 0 0 0 0 0 0 0 0 0 0 0
0 0 0 0 0 0 0 0 0 0 0 0 0 0 0 0 0 0 0 0 0 0 0 0 0 0 0 0 0 0 0 0 0 0 0 0 0 0 0 0 0 0 0 0 0 0 0 0 0
0 0 0 0 0 0 0 0 0 0 0 0 0 0 0 0 0 0 0 0 0 0 0 0 0 0 0 0 0 0 0 0 0 0 0 0 0 0 0 0 0 0 0 0 0 0 0 0 0
0 0 0 0 0 0 0 0 0 0 0 0 0 0 0 0 0 0 0 0 0 0 0 0 0 0 0 0 0 0 0 0 0 0 0 0 0 0 0 0 0 0 0 0 0 0 0 0 0
0 0 0 0 0 0 0 0 0 0 0 0 0 0 0 0 0 0 0 0 0 0 0 0 0 0 0 0 0 0 0 0 0 0 0 0 0 0 0 0 0 0 0 0 0 0 0 0 0
0 0 0 0 0 0 0 0 0 0 0 0 0 0 0 0 0 0 0 0 0 0 0 0 0 0 0 0 0 0 0 0 0 0 0 0 0 0 0 0 0 0 0 0 0 0 0 0 0
0 0 0 0 0 0 0 0 0 0 0 0 0 0 0 0 0 0 0 0 0 0 0 0 0 0 0 0 0 0 0 0 0 0 0 0 0 0 0 0 0 0 0 0 0 0 0 0 0
0 0 0 0 0 0 0 0 0 0 0 0 0 0 0 0 0 0 0 0 0 0 0 0 0 0 0 0 0 0 0 0 0 0 0 0 0 0 0 0 0 0 0 0 0 0 0 0 0
0 0 0 0 0 0 0 0 0 0 0 0 0 0 0 0 0 0 0 0 0 0 0 0 0 0 0 0 0 0 0 0 0 0 0 0 0 0 0 0 0 0 0 0 0 0 0 0 0
0 0 0 0 0 0 0 0 0 0 0 0 0 0 0 0 0 0 0 0 0 0 0 0 0 0 0 0 0 0 0 0 0 0 0 0 0 0 0 0 0 0 0 0 0 0 0 0 0
0 0 0 0 0 0 0 0 0 0 0 0 0 0 0 0 0 0 0 0 0 0 0 0 0 0 0 0 0 0 0 0 0 0 0 0 0 0 0 0 0 0 0 0 0 0 0 0 0
0 0 0 0 0 0 0 0 0 0 0 0 0 0 0 0 0 0 0 0 0 0 0 0 0 0 0 0 0 0 0 0 0 0 0 0 0 0 0 0 0 0 0 0 0 0 0 0 0
0 0 0 0 0 0 0 0 0 0 0 0 0 0 0 0 0 0 0 0 0 0 0 0 0 0 0 0 0 0 0 0 0 0 0 0 0 0 0 0 0 0 0 0 0 0 0 0 0
0 0 0 0 0 0 0 0 0 0 0 0 0 0 0 0 0 0 0 0 0 0 0 0 0 0 0 0 0 0 0 0 0 0 0 0 0 0 0 0 0 0 0 0 0 0 0 0 0
0 0 0 0 0 0 0 0 0 0 0 0 0 0 0 0 0 0 0 0 0 0 0 0 0 0 0 0 0 0 0 0 0 0 0 0 0 0 0 0 0 0 0 0 0 0 0 0 0
0 0 0 0 0 0 0 0 0 0 0 0 0 0 0 0 0 0 0 0 0 0 0 0 0 0 0 0 0 0 0 0 0 0 0 0 0 0 0 0 0 0 0 0 0 0 0 0 0
0 0 0 0 0 0 0 0 0 0 0 0 0 0 0 0 0 0 0 0 0 0 0 0 0 0 0 0 0 0 0 0 0 0 0 0 0 0 0 0 0 0 0 0 0 0 0 0 0
Wind_Speed
4 3 2 2 3 7 8 6 6 8 6 7 8 7 8 9 7 8 5 10 11 12 13 16 20 21 22 23 23 24 24 24 25 25 25 26 26 26 26 26 26 26 26 26 26 26 26 25 25
3 1 1 1 2 7 7 6 8 7 10 9 7 7 8 9 8 7 5 9 11 11 12 15 20 20 21 22 22 23 23 24 24 25 25 25 26 26 26 26 26 26 26 26 26 26 26 25 25
4 3 3 4 5 6 9 8 11 12 9 5 6 7 6 7 6 5 6 8 9 11 12 15 19 20 21 21 22 22 22 23 24 24 25 25 25 25 25 26 26 25 26 25 25 25 25 25 25
1 3 5 7 11 6 7 12 13 11 6 4 7 8 7 5 4 7 7 7 9 11 12 15 20 20 21 21 21 21 22 23 23 24 24 24 25 25 25 25 25 25 25 25 25 25 26 25 25
1 2 6 8 9 7 8 10 10 6 6 6 7 8 8 7 9 8 7 8 9 11 11 14 19 20 20 21 21 21 22 22 23 23 23 24 24 24 24 24 24 25 25 25 25 25 25 25 25
2 2 5 8 8 7 7 6 7 6 7 7 8 9 9 8 8 7 6 7 9 10 11 11 16 17 19 20 21 20 21 21 22 22 23 23 23 23 23 24 24 25 25 25 25 25 25 25 25
3 5 7 9 9 7 6 5 6 7 8 7 7 9 10 10 7 6 5 6 8 10 10 11 12 13 15 17 19 19 19 20 20 21 22 22 21 22 22 23 24 24 25 25 25 25 25 25 25
4 7 8 7 9 8 9 6 4 5 7 6 5 7 9 13 9 6 4 4 6 8 10 11 12 12 12 11 16 16 17 19 19 19 21 20 19 19 20 20 23 24 24 25 24 25 25 25 23
1 4 6 7 7 9 11 8 6 3 8 6 3 2 10 16 10 5 3 5 6 8 10 11 12 12 11 11 11 12 13 15 16 15 19 17 13 14 14 19 22 23 24 24 24 24 24 23 20
5 4 6 3 3 10 12 8 10 9 9 7 8 10 15 13 9 6 4 5 7 9 10 10 11 12 11 9 8 8 8 10 11 11 14 11 12 11 14 17 19 21 22 22 22 24 21 17 12
8 8 7 5 7 11 11 10 9 10 8 9 15 18 17 13 9 6 4 5 7 8 9 10 11 11 11 8 7 6 6 7 9 11 13 11 10 9 10 9 11 13 16 13 16 15 12 13 13
9 8 7 8 7 9 10 10 8 9 1 8 16 18 16 13 9 6 4 5 6 8 9 9 10 10 10 9 7 7 6 6 7 9 12 10 8 9 10 8 10 10 9 12 12 11 15 16 16
8 8 7 9 9 8 9 8 6 5 5 13 17 16 14 12 9 6 4 4 5 7 8 9 9 10 9 8 7 7 7 7 8 8 9 11 9 10 10 9 9 11 10 11 12 13 15 16 15
10 11 10 8 7 6 7 6 6 7 12 16 16 15 13 11 10 7 5 3 5 6 7 8 8 9 9 8 8 7 7 7 7 7 10 11 10 10 10 11 10 10 10 11 12 15 14 13 13
9 9 8 5 4 5 6 7 8 12 16 17 16 14 12 11 9 7 5 3 4 5 6 8 8 9 9 9 9 7 7 8 7 8 10 11 11 11 11 10 10 10 11 13 12 14 12 13 13
5 5 5 6 5 5 7 7 9 16 18 17 15 14 13 11 10 7 6 4 3 4 6 7 6 9 10 10 9 7 7 8 7 8 8 11 12 12 11 10 10 11 11 11 11 12 12 13 13
5 4 2 5 7 6 9 7 9 16 17 17 16 14 13 12 11 9 6 4 2 3 5 6 8 9 10 10 8 8 7 8 7 7 8 11 12 13 12 10 10 12 11 11 11 11 12 14 14
1 3 3 3 7 9 10 10 7 15 18 17 16 15 14 13 12 10 7 5 2 2 4 6 7 9 10 8 7 7 8 7 7 7 9 12 11 13 12 10 12 12 11 11 12 14 13 13 13
2 4 6 1 3 7 12 13 9 14 17 17 16 16 15 14 11 10 8 5 3 1 4 6 8 9 8 7 8 8 8 8 7 7 11 12 12 13 12 10 12 12 11 13 15 14 15 13 12
3 6 5 1 2 6 10 14 9 12 19 18 17 16 16 14 12 11 9 6 3 1 4 6 7 8 8 7 7 7 8 7 7 7 9 11 12 13 11 13 12 12 12 14 14 14 12 12 11
4 5 5 5 1 5 9 8 6 5 11 14 16 16 15 15 14 13 10 7 3 1 3 4 7 8 8 9 7 7 6 7 7 9 8 11 12 12 12 13 13 13 12 12 14 14 15 13 12
3 1 4 4 6 3 3 7 5 4 7 12 16 16 16 14 13 12 10 7 3 1 2 4 6 7 7 8 8 10 9 9 10 9 9 12 12 12 12 13 14 13 12 14 14 14 13 14 12
3 2 2 4 4 6 3 6 1 3 5 9 14 15 14 13 13 12 10 7 4 2 1 3 5 6 7 8 9 9 9 9 8 10 12 11 11 11 12 13 13 13 12 14 15 15 15 12 13
1 2 3 3 4 5 1 5 4 3 2 1 4 10 12 12 12 11 9 7 4 2 1 3 5 6 7 8 9 9 11 11 12 12 12 11 9 10 12 13 13 14 13 14 15 15 16 14 15
2 5 4 3 3 2 3 6 6 1 2 4 4 5 9 11 12 11 10 7 5 2 2 3 5 6 7 8 8 9 10 11 12 12 11 12 10 10 13 14 14 13 14 15 15 15 15 15 16
1 4 5 6 7 6 2 7 2 2 1 3 5 5 8 11 11 11 9 7 5 3 2 3 5 6 7 8 8 8 9 8 8 11 11 11 10 11 14 15 15 16 16 16 15 13 14 13 14
1 1 3 5 4 7 6 6 4 3 6 6 6 7 10 12 12 11 9 7 5 3 2 3 5 6 7 8 8 9 9 9 10 11 11 10 11 11 14 15 16 16 16 16 16 12 14 13 13
3 2 3 3 6 7 8 7 4 4 5 7 9 10 11 12 12 11 9 7 5 4 3 3 4 6 7 7 7 7 9 9 10 10 11 12 13 13 15 15 16 16 16 16 15 14 13 14 13
4 4 3 2 4 6 8 7 1 4 3 5 7 10 12 13 13 11 9 7 6 4 3 3 4 5 6 7 8 8 9 9 10 10 11 12 12 14 14 15 16 16 16 16 15 15 15 14 12
3 4 5 5 4 5 7 9 3 3 3 5 6 7 11 12 12 11 9 8 6 5 4 4 4 5 6 7 8 9 9 9 10 10 11 12 13 13 14 15 15 15 16 15 15 15 15 14 13
Wind_Direction
111 146 225 233 113 80 85 87 108 121 91 80 72 75 76 53 30 76 66 16 4 359 357 2 12 14 16 16 16 16 16 16 15 14 13 11 9 8 8 6 4 3 1 360 358 356 354 353 352
91 173 253 344 132 116 100 115 119 102 116 115 86 84 86 80 64 79 56 22 10 9 4 9 13 16 17 17 17 17 16 16 14 13 12 10 9 7 7 5 3 2 0 358 357 355 352 351 349
95 48 45 62 71 88 114 124 120 114 122 123 98 66 67 80 78 76 50 24 18 20 14 13 15 18 19 18 17 17 16 16 14 12 11 10 8 6 5 3 1 0 359 357 355 353 351 349 347
119 87 67 68 85 60 101 130 133 133 123 101 120 103 86 52 69 84 65 35 29 27 20 17 18 19 20 19 17 17 16 15 13 12 10 9 6 4 4 2 360 358 357 355 354 351 349 347 345
98 99 88 85 85 98 111 131 150 141 126 123 128 112 103 97 99 93 72 42 32 29 23 20 21 20 20 20 18 17 15 15 12 10 8 7 5 3 2 0 358 357 355 354 352 349 347 345 342
95 84 106 114 110 122 132 156 166 139 124 131 134 120 114 130 123 99 75 52 38 29 23 24 23 22 21 20 19 16 15 13 11 9 6 4 2 360 360 358 356 355 353 351 349 347 345 343 340
72 70 91 121 133 149 142 155 180 153 142 140 140 127 131 151 131 117 88 58 43 31 26 23 20 20 19 20 17 14 13 11 9 7 4 1 358 357 357 355 353 351 350 348 346 345 343 340 337
75 101 109 136 150 153 142 132 128 156 129 123 163 151 154 155 144 133 98 60 46 35 29 23 22 18 11 13 16 10 9 8 5 5 2 357 354 353 352 352 349 348 347 345 342 342 339 337 333
280 103 128 149 164 149 155 149 128 114 132 137 146 117 131 140 148 149 128 81 51 40 33 24 19 16 8 5 6 2 4 4 0 1 359 354 350 350 347 347 345 345 343 341 340 339 336 334 329
15 87 96 78 119 147 159 160 150 159 160 152 140 126 132 147 155 150 109 63 43 34 30 24 18 13 6 0 356 355 359 357 359 357 355 350 346 344 342 338 340 341 340 338 338 336 334 333 328
47 75 101 91 104 138 146 151 164 173 184 184 165 152 153 157 158 148 107 66 46 37 30 24 17 11 5 356 351 352 350 351 352 355 352 345 343 338 339 336 336 337 337 338 334 332 333 329 325
84 74 90 113 121 141 148 153 172 196 235 161 157 154 158 165 163 152 115 74 52 38 28 21 14 8 0 353 347 350 348 347 349 349 350 347 341 338 338 333 333 334 333 331 329 325 325 323 320
87 106 89 104 115 126 143 162 170 178 137 142 146 157 166 167 161 148 124 92 55 38 27 17 8 4 356 349 342 347 348 346 344 345 346 347 339 336 335 329 330 329 329 327 325 323 322 319 317
102 110 113 116 120 142 155 160 180 163 152 150 159 168 173 173 169 162 154 102 57 38 24 10 4 1 352 348 346 347 345 342 341 342 344 343 338 333 329 325 324 325 326 324 320 319 317 315 314
122 115 123 139 147 152 172 195 208 161 165 166 174 177 179 181 180 177 152 110 63 40 20 10 359 354 350 348 347 343 343 341 339 340 338 341 338 331 327 321 320 323 323 320 318 317 316 313 312
151 166 176 158 176 167 221 251 166 163 176 180 185 185 187 188 190 178 158 130 81 38 18 9 356 348 350 349 344 342 340 340 338 337 335 340 337 333 326 320 319 322 319 317 317 317 317 314 312
189 230 232 173 192 185 225 257 149 174 187 192 193 194 195 192 193 183 168 148 104 40 15 3 357 349 347 343 337 336 337 338 337 337 339 340 336 334 327 320 319 322 318 315 315 317 316 313 312
221 264 252 237 179 206 231 247 173 187 199 204 202 202 203 202 197 184 173 159 129 55 15 2 355 350 344 340 335 333 338 339 339 339 341 338 335 334 328 320 322 322 316 316 317 315 313 310 310
296 271 278 278 148 230 248 259 231 193 205 213 211 209 210 210 192 179 177 172 159 67 11 2 352 351 347 344 340 337 338 336 337 337 336 334 334 332 328 324 322 321 317 317 315 315 312 312 313
243 268 277 199 163 255 285 276 257 205 209 215 217 217 216 208 191 186 185 183 175 49 9 356 351 346 348 344 334 329 324 324 326 328 330 333 332 330 327 325 322 319 316 314 315 315 310 309 314
250 277 308 310 236 224 291 268 179 197 221 225 229 229 224 213 201 190 188 187 178 66 11 350 344 339 344 340 331 328 324 323 333 335 331 331 329 327 325 323 320 316 315 312 313 312 309 309 308
300 333 298 286 286 293 322 303 147 181 217 223 226 225 224 213 204 192 187 183 174 108 13 336 335 335 341 339 338 338 334 333 334 330 324 325 326 325 324 322 319 315 313 310 310 308 304 302 301
343 11 274 262 265 275 221 273 249 164 241 228 223 222 219 209 199 188 182 172 158 140 336 325 327 332 340 340 339 335 331 329 325 326 324 326 325 324 324 322 319 316 312 309 307 305 301 297 294
190 212 176 198 234 255 162 273 285 172 216 221 218 216 209 198 189 179 168 160 161 166 264 311 322 331 339 338 338 335 331 329 327 329 327 327 324 322 325 324 319 316 313 310 307 302 298 294 291
247 289 284 266 250 316 117 259 266 75 237 261 271 224 199 187 181 175 171 172 176 197 258 301 320 331 338 336 335 332 329 327 326 328 326 326 323 324 325 324 320 317 314 311 307 302 298 295 291
13 320 342 319 315 318 211 256 288 117 236 264 264 231 190 186 183 179 175 176 183 203 253 299 321 330 333 332 331 326 328 325 320 323 322 321 320 321 321 321 318 316 316 314 311 305 300 296 293
200 102 360 285 282 279 270 268 259 171 236 231 224 204 195 189 185 181 176 178 187 206 247 299 316 323 327 326 325 323 327 324 321 321 319 318 319 319 320 319 319 318 319 318 317 307 305 301 294
355 135 195 264 304 299 293 280 276 214 225 215 220 213 200 190 186 183 181 181 188 206 235 278 304 314 318 320 323 319 320 321 319 317 319 320 320 321 321 321 320 320 320 320 320 317 312 308 300
165 176 202 217 273 287 302 300 183 253 252 245 234 215 199 191 188 184 182 182 189 204 230 269 294 305 312 318 318 316 318 319 318 317 320 321 321 322 323 322 322 322 322 323 324 323 324 319 314
256 228 209 251 234 239 276 278 132 225 242 253 256 217 199 192 186 183 181 183 194 210 230 260 284 298 309 313 311 312 315 317 318 320 322 322 321 322 323 323 323 324 324 325 326 328 331 331 328